SKCUBE (42789 NORAD) Tracking and Keplerian Element Data

This shows tracking and keplerian element data for the satellite.

Feedback or suggestion? Click here.




ElementValue
Catalog42789
NameSKCUBE
Epoch Orbit30099
Epoch Day324.69990425
Epoch Year2022
RAAN3.1513
Inclination97.1812
Eccentricity0.0010198
Argument of Perigee117.8398
Mean Anonmoly242.388
Mean Motion15.34334896
Decay Rate0.00013291
L11 42789U 17036AA 22324.69990425 .00013291 00000+0 40122-3 0 9991
L22 42789 97.1812 3.1513 0010198 117.8398 242.3880 15.34334896300993



Live tracking and technical data element details for SKCUBE (NORAD 42789). SKCUBE can be tracked NOW for your location showing map with azimuth and elevation plus other details from your city location.







IsCatalogInMostPopularTable: catalog: 42789, numindb: 537
Update: records affected: 1



GetName: 42789 SKCUBE

Hit Count: updated at: Mon, 28 Nov 2022 04:24:05 GMT